Regional Weather Roundup
Issued by NWS State College, PA

Home | Current Version | Previous Version | Text Only | Print | Product List | Glossary Off
Versions: 1 2 3 4 5 6 7 8 9 10 11 12 13 14 15 16 17 18 19 20 21 22 23 24 25 26 27 28 29 30 31 32 33 34 35 36 37 38 39 40 41 42 43 44 45 46 47 48 49 50

990
ASUS41 KCTP 262310
RWRCTP

REGIONAL WEATHER ROUNDUP
NATIONAL WEATHER SERVICE STATE COLLEGE PA
700 PM EDT FRI MAY 26 2017

Note: "fair" indicates few or no clouds below 12,000 feet with no
significant weather and/or obstructions to visibility.

* = STATION THAT DOES NOT REPORT PRECIPITATION /E.G. RAIN...SNOW...ETC/
    THUNDER OR FOG.

PAZ002>004-007>009-013>016-020>023-029>032-270000-
WESTERN PENNSYLVANIA

CITY           SKY/WX    TMP DP  RH WIND       PRES   REMARKS
ERIE           CLOUDY    58  52  80 W12       29.89R
MEADVILLE      CLOUDY    58  54  86 W6        29.90R
FRANKLIN*      CLOUDY    57  50  77 W8        29.91R
NEW CASTLE     CLOUDY    65  53  65 W6        29.91R
BEAVER COUNTY  MOSUNNY   63  52  67 NW5       29.90R
BUTLER*        PTSUNNY   63  52  67 W6        29.90R
PITTSBURGH INT MOSUNNY   67  54  63 NW13      29.89R
PITTSBURGH     MOSUNNY   66  51  58 NW12G23   29.88R
INDIANA*       CLOUDY    63  54  72 NW9G16    29.91R
LATROBE        PTSUNNY   66  55  68 NW7       29.89R
WASHINGTON CO* CLOUDY    68  55  64 W5        29.91R
$$

PAZ004>006-010>012-017>019-024>028-033>037-041-042-045-046-049>053-270000-
CENTRAL PENNSYLVANIA

CITY           SKY/WX    TMP DP  RH WIND       PRES   REMARKS
BRADFORD       LGT RAIN  54  52  93 W8        29.88R FOG
DUBOIS         CLOUDY    57  50  77 W10       29.88R
CLEARFIELD     CLOUDY    59  53  80 NW9       29.88R
JOHNSTOWN      CLOUDY    59  51  75 W15       29.89R
ALTOONA        CLOUDY    64  53  67 NW10      29.88R
STATE COLLEGE  CLOUDY    59  52  77 W13       29.86R
WILLIAMSPORT   CLOUDY    68  55  63 NW6       29.76R
SELINSGROVE    CLOUDY    70  54  56 W9        29.79R
FT INDIANTOWN  PTSUNNY   68  53  56 W5        29.78R
CAPITAL CITY   PTSUNNY   70  51  51 NW14G23   29.80R
HARRISBURG     PTSUNNY   69  55  60 W17G23    29.79R
YORK           CLOUDY    67  55  65 W10       29.81R
$$

PAZ038>040-043-044-047-048-054-055-060>062-067>071-270000-
EASTERN PENNSYLVANIA

CITY           SKY/WX    TMP DP  RH WIND       PRES   REMARKS
SCRANTON       CLOUDY    67  55  65 NW9       29.75R
MOUNT POCONO   MOSUNNY   61  52  72 NW10      29.76R
ALLENTOWN      CLOUDY    70  54  56 W6        29.73R
QUAKERTOWN*    CLOUDY    66  55  68 NW6       29.75R
READING        CLOUDY    69  55  60 W14       29.75R
LANCASTER      CLOUDY    71  55  56 W20G25    29.78R
COATESVILLE    CLOUDY    68  54  60 NW16G23   29.79R
POTTSTOWN      CLOUDY    68  52  56 VRB6G20   29.77R
BLUE BELL      CLOUDY    68  54  60 W7        29.76R
DOYLESTOWN     CLOUDY    69  54  58 W7        29.73R
WILLOW GROVE   NOT AVBL
NORTH PHILA    CLOUDY    73  54  51 W10       29.74R
PHILADELPHIA   PTSUNNY   73  52  47 W18       29.75R
$$




USA.gov is the U.S. government's official web portal to all federal, state and local government web resources and services.